Location: Valdosta
(30.8330°N, 83.2790°W)
Time: 08:16:59
(UTC-04:00)

Amateur Radio Satellites - All Passes

Search period start: 28 March 2015 07:46
Search period end: 29 March 2015 07:46
Location: Valdosta, 30.8330°N, 83.2790°W

Satellite Date Start Highest point End Downlink Frequencies (MHz)
Time Altitude Azimuth
AO-7 28 Mar 07:47:58 07:52:44 16° 301° (WNW) 07:56:57 29.400- 29.500
CUSAT 1 28 Mar 08:06:06 08:09:00 17° 79° (ENE) 08:12:40 437.405
VERMONT LUNAR 28 Mar 08:07:32 08:10:06 20° 347° (NNW) 08:12:40 437.305
RS-15 28 Mar 08:13:17 08:21:14 20° 256° (WSW) 08:28:24 29.354- 29.394
PHONESAT 2.4 28 Mar 08:35:06 08:38:07 26° 344° (NNW) 08:41:08 2401.200-2431.200
DANDE 28 Mar 08:45:20 08:49:09 31° 81° (E) 08:54:09 436.750
ISS 28 Mar 09:00:30 09:00:52 10° 234° (SW) 09:01:04 145.825
HO-68 28 Mar 09:16:43 09:22:12 24° 95° (E) 09:27:55 435.675
STRAND 1 28 Mar 09:16:59 09:19:00 12° 269° (W) 09:20:39 437.568
GONETS M04 28 Mar 09:18:25 09:25:52 30° 273° (W) 09:33:02
CANX-2 28 Mar 09:21:24 09:24:13 17° 94° (E) 09:27:11 2200.000
Cubesat XI-IV 28 Mar 09:27:49 09:29:31 11° 294° (WNW) 09:30:49 437.490
CUTE-I 28 Mar 09:28:03 09:29:45 11° 294° (WNW) 09:31:05 437.470
BRITE-PL 28 Mar 09:28:52 09:32:49 38° 99° (E) 09:36:59 437.365/2234.400
CUTE 1.7 + AOD 2 28 Mar 09:35:04 09:38:28 23° 95° (E) 09:41:57 437.475
VERMONT LUNAR 28 Mar 09:46:26 09:48:35 16° 4° (N) 09:50:46 437.305
CUSAT 1 28 Mar 09:47:19 09:51:40 40° 263° (W) 09:57:17 437.405
AAUSAT CUBESAT 2 28 Mar 10:04:48 10:08:30 30° 97° (E) 10:12:14 437.432
SEEDS 28 Mar 10:05:52 10:09:59 46° 99° (E) 10:14:07 437.485
CINEMA 3 28 Mar 10:08:35 10:12:07 23° 96° (E) 10:15:52 145.822/145.860
PHONESAT 2.4 28 Mar 10:14:50 10:17:12 17° 1° (N) 10:19:35 2401.200-2431.200
DOVE 4 28 Mar 10:18:01 10:22:21 63° 101° (E) 10:26:56 437.250
Oscar 11 28 Mar 10:20:04 10:23:14 20° 94° (E) 10:26:31 145.826/435.025
ANTELSAT 28 Mar 10:20:19 10:21:03 11° 69° (ENE) 10:22:06 437.575/2403.000
GOMX 1 28 Mar 10:22:36 10:26:54 72° 282° (WNW) 10:31:25 467.674
UWE-3 28 Mar 10:28:36 10:31:19 16° 94° (E) 10:34:16 435.000/436.395/437.385
FUNcube-1 28 Mar 10:28:59 10:30:38 12° 92° (E) 10:32:35 145.935
DANDE 28 Mar 10:29:11 10:32:28 19° 263° (W) 10:36:09 436.750
CUBEBUG 2 28 Mar 10:30:07 10:33:29 21° 95° (E) 10:37:02 437.445
COMPASS 1 28 Mar 10:30:20 10:34:36 78° 100° (E) 10:38:50 437.405
BEESAT 2 28 Mar 10:37:05 10:40:31 27° 112° (ESE) 10:44:03 435.950
ZACube-1 28 Mar 10:40:12 10:43:07 18° 94° (E) 10:46:14 437.345
QB50P2 28 Mar 10:48:43 10:50:08 12° 70° (ENE) 10:51:48 145.880/145.840
CANX-2 28 Mar 10:56:26 11:00:12 29° 287° (WNW) 11:03:53 2200.000
HO-68 28 Mar 11:03:17 11:10:13 51° 289° (WNW) 11:17:03 435.675
BRITE-PL 28 Mar 11:09:07 11:11:10 13° 289° (WNW) 11:13:00 437.365/2234.400
CUTE 1.7 + AOD 2 28 Mar 11:10:56 11:14:19 22° 288° (WNW) 11:17:35 437.475
50 SAT 28 Mar 11:11:04 11:11:12 10° 91° (E) 11:11:39 437.505
UNISAT 6 28 Mar 11:12:53 11:16:58 49° 75° (ENE) 11:21:08 437.425
BEESAT 3 28 Mar 11:15:05 11:19:09 80° 297° (WNW) 11:23:17 437.485
POPSAT HIP 1 28 Mar 11:15:42 11:19:07 25° 73° (ENE) 11:22:38 437.405
BUGSAT 1 28 Mar 11:22:32 11:25:38 21° 72° (ENE) 11:28:50 437.445
TIGRISAT 28 Mar 11:23:41 11:27:52 66° 77° (ENE) 11:32:06 435.000
VERMONT LUNAR 28 Mar 11:23:50 11:26:55 33° 21° (NNE) 11:30:03 437.305
UKube-1 28 Mar 11:25:15 11:29:20 41° 99° (E) 11:33:25 .
NANOSAT C BR1 28 Mar 11:26:29 11:30:17 34° 74° (ENE) 11:34:07 145.865
DELFI C3 28 Mar 11:27:45 11:31:51 71° 283° (WNW) 11:35:54 145.870
POLYITAN 1 28 Mar 11:29:22 11:33:16 38° 74° (ENE) 11:37:12 437.675
DX 1 28 Mar 11:33:30 11:37:46 57° 101° (E) 11:42:01 434.975-435.025
AIST 2 28 Mar 11:40:30 11:44:33 49° 114° (ESE) 11:48:43 435.215
HUMSAT D 28 Mar 11:41:04 11:45:10 45° 99° (E) 11:49:18 437.325/437.525
AAUSAT CUBESAT 2 28 Mar 11:41:09 11:43:56 17° 289° (WNW) 11:46:32 437.432
SEEDS 28 Mar 11:43:59 11:45:27 11° 290° (WNW) 11:46:39 437.485
CINEMA 3 28 Mar 11:45:38 11:49:16 24° 287° (WNW) 11:52:55 145.822/145.860
PHONESAT 2.4 28 Mar 11:53:10 11:56:16 28° 17° (NNE) 11:59:23 2401.200-2431.200
ANTELSAT 28 Mar 11:53:22 11:57:29 48° 261° (W) 12:01:38 437.575/2403.000
Oscar 11 28 Mar 11:55:45 11:59:24 26° 287° (WNW) 12:02:57 145.826/435.025
FUNcube-1 28 Mar 12:03:01 12:07:12 43° 285° (WNW) 12:11:27 145.935
UWE-3 28 Mar 12:03:56 12:07:57 34° 286° (WNW) 12:12:00 435.000/436.395/437.385
CUBEBUG 2 28 Mar 12:06:25 12:10:09 26° 287° (WNW) 12:13:54 437.445
QB50P1 28 Mar 12:07:07 12:11:20 69° 259° (W) 12:15:32 145.935-145.965
VELOX 1 28 Mar 12:08:05 12:12:26 58° 100° (E) 12:16:46 145.980
DUCHIFAT 1 28 Mar 12:09:47 12:13:58 65° 259° (W) 12:18:10 145.980
AISAT 28 Mar 12:12:08 12:16:31 68° 101° (E) 12:20:54 437.250
CUBEBUG 1 28 Mar 12:12:36 12:16:13 26° 96° (E) 12:19:52 437.445
BEESAT 2 28 Mar 12:15:34 12:18:40 20° 306° (NW) 12:21:44 435.950
ZACube-1 28 Mar 12:15:39 12:19:32 30° 286° (WNW) 12:23:26 437.345
QB50P2 28 Mar 12:21:41 12:25:43 43° 261° (W) 12:29:45 145.880/145.840
ESTCUBE 1 28 Mar 12:37:13 12:41:41 63° 101° (E) 12:46:07 437.505/2401.250
50 SAT 28 Mar 12:42:33 12:46:23 42° 285° (WNW) 12:50:13 437.505
POPSAT HIP 1 28 Mar 12:51:54 12:55:00 19° 265° (W) 12:57:59 437.405
BUGSAT 1 28 Mar 12:57:40 13:01:02 23° 264° (W) 13:04:16 437.445
VERMONT LUNAR 28 Mar 13:01:31 13:04:40 37° 214° (SW) 13:07:49 437.305
UKube-1 28 Mar 13:03:07 13:05:10 13° 291° (WNW) 13:06:59 .
NANOSAT C BR1 28 Mar 13:03:57 13:06:17 14° 267° (W) 13:08:24 145.865
POLYITAN 1 28 Mar 13:07:28 13:09:24 12° 268° (W) 13:11:04 437.675
HUMSAT D 28 Mar 13:19:01 13:20:36 12° 290° (WNW) 13:21:56 437.325/437.525
AIST 2 28 Mar 13:21:22 13:23:29 13° 310° (NW) 13:25:26 435.215
PHONESAT 2.4 28 Mar 13:31:17 13:34:47 60° 212° (SSW) 13:38:18 2401.200-2431.200
CUBEBUG 1 28 Mar 13:49:16 13:52:27 20° 288° (WNW) 13:55:29 437.445
JUGNU 28 Mar 13:53:23 13:56:40 15° 164° (SSE) 14:00:03 437.505
TISAT 1 28 Mar 13:56:21 14:00:33 84° 283° (WNW) 14:04:45 437.305
YUBILEINY 28 Mar 14:01:43 14:09:34 40° 89° (E) 14:17:38 435.215
SPROUT 28 Mar 14:02:12 14:06:25 57° 284° (WNW) 14:10:36 437.525
Oscar 19 28 Mar 14:05:48 14:10:47 58° 75° (ENE) 14:15:49 437.125/150
SWISSCUBE 28 Mar 14:09:05 14:12:14 18° 94° (E) 14:15:33 437.505
BEESAT 28 Mar 14:12:18 14:15:25 18° 94° (E) 14:18:43 436.000
Gurwin Techsat 1B 28 Mar 14:13:30 14:16:26 16° 68° (ENE) 14:19:38 435.225
O/OREOS (USA 219) 28 Mar 14:43:33 14:47:12 24° 64° (ENE) 14:50:53 437.305
SRMSAT 28 Mar 14:52:06 14:53:31 11° 162° (SSE) 14:55:06 437.500
ITUPSAT 1 28 Mar 14:57:08 15:01:51 58° 100° (E) 15:06:33 437.325
AO-7 28 Mar 14:58:27 15:01:33 13° 57° (ENE) 15:05:16 29.400- 29.500
ITAMSAT 1 28 Mar 15:08:25 15:13:38 76° 75° (ENE) 15:18:52 435.822/435.867
PCSat 28 Mar 15:24:54 15:30:14 65° 112° (ESE) 15:35:37 145.827
JUGNU 28 Mar 15:40:20 15:45:11 25° 173° (S) 15:50:01 437.505
HORYU 2 28 Mar 15:44:34 15:48:11 26° 72° (ENE) 15:51:54 437.375
SWISSCUBE 28 Mar 15:45:52 15:50:13 35° 287° (WNW) 15:54:29 437.505
Oscar 19 28 Mar 15:48:32 15:50:35 12° 269° (W) 15:52:17 437.125/150
BEESAT 28 Mar 15:49:02 15:53:24 35° 287° (WNW) 15:57:41 436.000
Gurwin Techsat 1B 28 Mar 15:50:53 15:56:03 51° 260° (W) 16:01:13 435.225
YUBILEINY 28 Mar 15:58:27 16:06:26 36° 285° (WNW) 16:14:17 435.215
JAS-2 28 Mar 16:04:00 16:09:18 26° 66° (ENE) 16:15:16 435.910
KKS-1 28 Mar 16:14:55 16:19:22 78° 101° (ESE) 16:23:49 437.445
O/OREOS (USA 219) 28 Mar 16:22:55 16:26:32 23° 258° (WSW) 16:30:00 437.305
AIST 1 28 Mar 16:23:33 16:27:48 61° 82° (E) 16:32:01
ITUPSAT 1 28 Mar 16:37:37 16:39:20 11° 292° (WNW) 16:40:42 437.325
SRMSAT 28 Mar 16:37:42 16:42:10 22° 169° (S) 16:46:39 437.500
AO-7 28 Mar 16:45:00 16:53:17 78° 72° (ENE) 17:01:36 29.400- 29.500
STARS 28 Mar 16:49:35 16:53:57 65° 284° (WNW) 16:58:19 437.465
PCSat 28 Mar 17:11:07 17:14:11 15° 309° (NW) 17:17:01 145.827
HORYU 2 28 Mar 17:21:27 17:24:50 21° 265° (W) 17:28:06 437.375
JUGNU 28 Mar 17:28:42 17:33:44 28° 183° (S) 17:38:45 437.505
MOZHAYETS 4 28 Mar 17:42:25 17:46:37 34° 97° (E) 17:50:51
JAS-2 28 Mar 17:47:37 17:53:56 48° 263° (W) 18:00:58 435.910
M-CUBED/EXP-1 PRIME 28 Mar 17:52:22 17:55:05 15° 96° (E) 17:57:58 437.505
RS-15 28 Mar 18:07:40 18:13:47 18° 104° (ESE) 18:20:46 29.354- 29.394
SRMSAT 28 Mar 18:25:49 18:30:51 28° 179° (S) 18:35:52 437.500
AO-7 28 Mar 18:41:38 18:46:56 17° 268° (W) 18:51:37 29.400- 29.500
SO-50 28 Mar 18:48:51 18:52:10 21° 110° (ESE) 18:55:44 436.795
Cubesat XI-IV 28 Mar 19:01:04 19:06:24 69° 76° (ENE) 19:11:46 437.490
CUTE-I 28 Mar 19:01:12 19:06:31 69° 76° (ENE) 19:11:52 437.470
AUBIESAT-1 28 Mar 19:01:47 19:06:38 87° 101° (ESE) 19:11:18 437.475
PRISM 28 Mar 19:06:11 19:07:49 12° 92° (E) 19:09:43 437.425
JUGNU 28 Mar 19:17:55 19:22:16 21° 192° (SSW) 19:26:32 437.505
MOZHAYETS 4 28 Mar 19:20:28 19:23:37 18° 289° (WNW) 19:26:36
M-CUBED/EXP-1 PRIME 28 Mar 19:25:33 19:30:11 45° 290° (WNW) 19:34:40 437.505
CUBESAT XI-V 28 Mar 19:26:44 19:30:53 33° 97° (E) 19:35:02 437.345
BEESAT 3 28 Mar 19:41:05 19:42:48 13° 50° (NE) 19:44:41 437.485
STRAND 1 28 Mar 19:50:51 19:55:19 31° 97° (E) 19:59:51 437.568
RS-15 28 Mar 20:14:11 20:25:07 84° 299° (WNW) 20:36:10 29.354- 29.394
GONETS M04 28 Mar 20:14:37 20:23:07 65° 93° (E) 20:31:44
SRMSAT 28 Mar 20:14:51 20:19:33 24° 189° (S) 20:24:12 437.500
SO-50 28 Mar 20:28:26 20:32:32 31° 305° (NW) 20:36:44 436.795
BRITE-PL 28 Mar 20:34:51 20:38:52 27° 74° (ENE) 20:42:43 437.365/2234.400
BEESAT 2 28 Mar 20:39:02 20:43:00 46° 60° (ENE) 20:46:55 435.950
PRISM 28 Mar 20:39:39 20:43:31 37° 286° (WNW) 20:47:19 437.425
CUTE-I 28 Mar 20:45:46 20:47:09 11° 270° (W) 20:48:06 437.470
Cubesat XI-IV 28 Mar 20:45:48 20:47:04 10° 270° (W) 20:47:54 437.490
AAUSAT CUBESAT 2 28 Mar 20:53:26 20:54:05 10° 69° (ENE) 20:54:59 437.432
SEEDS 28 Mar 20:54:00 20:56:35 17° 71° (ENE) 20:59:21 437.485
CUBESAT XI-V 28 Mar 21:04:55 21:08:06 18° 289° (WNW) 21:11:07 437.345
CINEMA 3 28 Mar 21:08:21 21:08:58 10° 70° (ENE) 21:09:54 145.822/145.860
CUSAT 1 28 Mar 21:11:59 21:13:55 15° 97° (E) 21:15:45 437.405
COMPASS 1 28 Mar 21:16:56 21:20:20 25° 73° (ENE) 21:23:49 437.405
BEESAT 3 28 Mar 21:17:14 21:21:10 45° 246° (WSW) 21:25:00 437.485
DOVE 4 28 Mar 21:19:03 21:22:59 33° 75° (ENE) 21:26:50 437.250
HO-68 28 Mar 21:25:01 21:32:07 71° 73° (ENE) 21:39:16 435.675
GOMX 1 28 Mar 21:25:30 21:30:06 65° 78° (ENE) 21:34:26 467.674
STRAND 1 28 Mar 21:30:21 21:34:23 23° 290° (WNW) 21:38:16 437.568
CANX-2 28 Mar 21:43:19 21:47:32 83° 258° (WSW) 21:51:47 2200.000
AIST 2 28 Mar 21:45:41 21:49:56 90° 166° (SSE) 21:54:04 435.215
DANDE 28 Mar 21:54:42 21:58:15 57° 98° (E) 22:01:07 436.750
CUTE 1.7 + AOD 2 28 Mar 21:57:27 22:01:37 60° 260° (W) 22:05:49 437.475
SRMSAT 28 Mar 22:05:18 22:08:11 14° 197° (SSW) 22:10:55 437.500
DELFI C3 28 Mar 22:10:25 22:14:00 32° 74° (ENE) 22:17:39 145.870
BRITE-PL 28 Mar 22:13:31 22:17:22 22° 264° (W) 22:20:55 437.365/2234.400
GONETS M04 28 Mar 22:14:17 22:20:43 21° 290° (WNW) 22:26:46
UKube-1 28 Mar 22:15:53 22:18:49 19° 71° (ENE) 22:21:54 .
BEESAT 2 28 Mar 22:20:00 22:20:46 10° 251° (WSW) 22:21:16 435.950
ISS 28 Mar 22:21:16 22:23:35 19° 128° (SE) 22:25:59 145.825
DX 1 28 Mar 22:24:21 22:27:52 25° 72° (ENE) 22:31:29 434.975-435.025
AAUSAT CUBESAT 2 28 Mar 22:25:20 22:29:20 47° 261° (W) 22:33:23 437.432
SEEDS 28 Mar 22:28:31 22:32:13 29° 263° (W) 22:35:53 437.485
HUMSAT D 28 Mar 22:29:16 22:31:39 16° 71° (ENE) 22:34:14 437.325/437.525
RS-15 28 Mar 22:31:37 22:39:30 21° 322° (NW) 22:47:01 29.354- 29.394
CINEMA 3 28 Mar 22:41:47 22:45:54 46° 261° (W) 22:49:55 145.822/145.860
Oscar 11 28 Mar 22:44:16 22:48:33 66° 259° (W) 22:52:52 145.826/435.025
COMPASS 1 28 Mar 22:53:00 22:56:01 19° 266° (W) 22:58:55 437.405
FUNcube-1 28 Mar 22:53:24 22:57:31 72° 77° (ENE) 23:01:39 145.935
UWE-3 28 Mar 22:55:33 22:59:42 81° 257° (WSW) 23:03:52 435.000/436.395/437.385
DOVE 4 28 Mar 22:58:11 23:00:52 15° 266° (W) 23:03:17 437.250
CUBEBUG 2 28 Mar 22:59:00 23:03:06 57° 260° (W) 23:07:12 437.445
VELOX 1 28 Mar 23:00:56 23:04:37 27° 72° (ENE) 23:08:22 145.980
AISAT 28 Mar 23:05:02 23:08:56 31° 73° (ENE) 23:12:51 437.250
CUBEBUG 1 28 Mar 23:05:30 23:07:08 12° 69° (ENE) 23:09:02 437.445
ZACube-1 28 Mar 23:05:57 23:10:06 76° 260° (W) 23:14:15 437.345
UNISAT 6 28 Mar 23:11:04 23:14:03 18° 94° (E) 23:17:16 437.425
HO-68 28 Mar 23:16:08 23:20:31 16° 269° (W) 23:24:24 435.675
TIGRISAT 28 Mar 23:21:14 23:24:46 22° 95° (E) 23:28:28 435.000
50 SAT 28 Mar 23:23:09 23:26:54 48° 76° (ENE) 23:30:41 437.505
ESTCUBE 1 28 Mar 23:31:51 23:35:46 30° 73° (ENE) 23:39:45 437.505/2401.250
DELFI C3 28 Mar 23:47:05 23:49:18 14° 268° (W) 23:51:19 145.870
ANTELSAT 28 Mar 23:50:21 23:54:51 52° 100° (E) 23:59:25 437.575/2403.000
UKube-1 28 Mar 23:51:01 23:54:48 28° 263° (W) 23:58:32 .
ISS 28 Mar 23:57:03 23:59:53 26° 321° (NW) 00:02:41 145.825
QB50P1 28 Mar 23:58:11 00:01:49 28° 97° (E) 00:05:31 145.935-145.965
DUCHIFAT 1 29 Mar 00:00:28 00:04:08 29° 97° (E) 00:07:51 145.980
DX 1 29 Mar 00:00:43 00:04:06 21° 265° (W) 00:07:21 434.975-435.025
HUMSAT D 29 Mar 00:03:38 00:07:14 29° 263° (W) 00:10:48 437.325/437.525
QB50P2 29 Mar 00:12:25 00:16:28 44° 99° (E) 00:20:32 145.880/145.840
PCSat 29 Mar 00:19:35 00:23:01 17° 53° (NE) 00:26:40 145.827
YUBILEINY 29 Mar 00:21:24 00:24:51 13° 65° (ENE) 00:29:04 435.215
VELOX 1 29 Mar 00:37:47 00:41:10 20° 265° (W) 00:44:26 145.980
CUBEBUG 1 29 Mar 00:38:55 00:43:10 46° 261° (W) 00:47:24 437.445
POPSAT HIP 1 29 Mar 00:41:13 00:45:28 78° 283° (WNW) 00:49:41 437.405
AISAT 29 Mar 00:42:32 00:45:36 18° 266° (W) 00:48:30 437.250
TISAT 1 29 Mar 00:43:29 00:47:17 34° 74° (ENE) 00:51:08 437.305
BUGSAT 1 29 Mar 00:44:27 00:48:29 78° 100° (E) 00:52:31 437.445
UNISAT 6 29 Mar 00:46:46 00:50:56 34° 286° (WNW) 00:55:06 437.425
SPROUT 29 Mar 00:50:50 00:54:59 51° 76° (ENE) 00:59:11 437.525
NANOSAT C BR1 29 Mar 00:52:14 00:56:22 56° 284° (WNW) 01:00:30 145.865
POLYITAN 1 29 Mar 00:55:50 00:59:56 49° 285° (WNW) 01:04:03 437.675
TIGRISAT 29 Mar 00:57:37 01:01:29 27° 287° (WNW) 01:05:19 435.000
ESTCUBE 1 29 Mar 01:09:22 01:12:41 19° 266° (W) 01:15:51 437.505/2401.250
SWISSCUBE 29 Mar 01:12:12 01:13:48 12° 68° (ENE) 01:15:42 437.505
BEESAT 29 Mar 01:15:24 01:16:54 12° 68° (ENE) 01:18:43 436.000
ANTELSAT 29 Mar 01:29:21 01:31:17 12° 291° (WNW) 01:32:57 437.575/2403.000
QB50P1 29 Mar 01:34:38 01:37:32 17° 289° (WNW) 01:40:16 145.935-145.965
DUCHIFAT 1 29 Mar 01:37:00 01:39:47 17° 289° (WNW) 01:42:24 145.980
QB50P2 29 Mar 01:50:29 01:52:02 12° 290° (WNW) 01:53:20 145.880/145.840
ITUPSAT 1 29 Mar 01:58:46 02:03:07 36° 73° (ENE) 02:07:32 437.325
PCSat 29 Mar 02:01:33 02:06:49 53° 249° (WSW) 02:12:03 145.827
YUBILEINY 29 Mar 02:14:18 02:23:10 87° 86° (E) 02:31:56 435.215
TISAT 1 29 Mar 02:20:52 02:23:14 14° 267° (W) 02:25:22 437.305
Oscar 19 29 Mar 02:23:11 02:27:45 32° 97° (E) 02:32:24 437.125/150
SWISSCUBE 29 Mar 02:46:32 02:51:15 57° 259° (W) 02:55:59 437.505
BEESAT 29 Mar 02:49:37 02:54:20 57° 260° (W) 02:59:04 436.000
KKS-1 29 Mar 03:08:00 03:12:00 35° 73° (ENE) 03:16:03 437.445
RS-15 29 Mar 03:11:38 03:18:19 17° 34° (NE) 03:25:48 29.354- 29.394
ITAMSAT 1 29 Mar 03:27:07 03:32:00 42° 99° (E) 03:36:53 435.822/435.867
ITUPSAT 1 29 Mar 03:37:51 03:41:09 18° 266° (W) 03:44:15 437.325
STARS 29 Mar 03:41:05 03:45:21 53° 75° (ENE) 03:49:38 437.465
Oscar 19 29 Mar 04:02:52 04:06:58 23° 290° (WNW) 04:10:55 437.125/150
Gurwin Techsat 1B 29 Mar 04:12:31 04:17:50 81° 285° (WNW) 04:23:09 435.225
YUBILEINY 29 Mar 04:14:46 04:19:03 14° 278° (W) 04:22:35 435.215
MOZHAYETS 4 29 Mar 04:40:03 04:43:04 18° 71° (ENE) 04:46:15
KKS-1 29 Mar 04:46:03 04:48:47 15° 267° (W) 04:51:18 437.445
AIST 1 29 Mar 04:47:09 04:51:22 47° 93° (E) 04:55:37
O/OREOS (USA 219) 29 Mar 04:49:19 04:53:54 79° 106° (ESE) 04:58:31 437.305
AO-7 29 Mar 04:53:20 05:00:42 37° 98° (E) 05:08:16 29.400- 29.500
JAS-2 29 Mar 05:03:35 05:10:29 38° 95° (E) 05:16:55 435.910
SO-50 29 Mar 05:04:27 05:09:18 54° 59° (ENE) 05:14:06 436.795
ITAMSAT 1 29 Mar 05:07:42 05:11:13 18° 291° (WNW) 05:14:31 435.822/435.867
HORYU 2 29 Mar 05:16:54 05:21:24 70° 284° (WNW) 05:25:52 437.375
RS-15 29 Mar 05:22:01 05:33:33 68° 59° (ENE) 05:45:37 29.354- 29.394
VERMONT LUNAR 29 Mar 05:40:38 05:43:58 72° 150° (SSE) 05:47:18 437.305
AUBIESAT-1 29 Mar 05:45:07 05:48:47 43° 69° (ENE) 05:52:49 437.475
M-CUBED/EXP-1 PRIME 29 Mar 06:08:59 06:12:49 77° 254° (WSW) 06:17:02 437.505
MOZHAYETS 4 29 Mar 06:15:54 06:20:04 33° 263° (W) 06:24:14
PHONESAT 2.4 29 Mar 06:17:10 06:20:36 53° 147° (SSE) 06:24:03 2401.200-2431.200
CUBESAT XI-V 29 Mar 06:25:40 06:28:49 19° 71° (ENE) 06:32:07 437.345
AIST 1 29 Mar 06:28:33 06:29:24 10° 288° (WNW) 06:29:54
ISS 29 Mar 06:28:43 06:31:16 21° 38° (NE) 06:33:51 145.825
GONETS M04 29 Mar 06:32:47 06:39:23 24° 71° (ENE) 06:46:22
AO-7 29 Mar 06:45:54 06:53:32 41° 293° (WNW) 07:01:03 29.400- 29.500
SO-50 29 Mar 06:47:01 06:49:28 13° 251° (WSW) 06:51:38 436.795
JAS-2 29 Mar 06:48:35 06:55:25 35° 291° (WNW) 07:01:35 435.910
STRAND 1 29 Mar 07:01:40 07:05:52 27° 71° (ENE) 07:10:10 437.568
VERMONT LUNAR 29 Mar 07:19:07 07:21:53 24° 344° (NNW) 07:24:40 437.305
AUBIESAT-1 29 Mar 07:23:22 07:24:02 10° 266° (W) 07:24:26 437.475
PRISM 29 Mar 07:23:59 07:28:10 73° 77° (ENE) 07:32:23 437.425
CUTE-I 29 Mar 07:24:10 07:29:11 43° 99° (E) 07:34:13 437.470
Cubesat XI-IV 29 Mar 07:24:13 07:29:15 43° 99° (E) 07:34:19 437.490
